When you browse on this site, cookies collect data to enhance your experience and personalize the content and advertising you see.
Visit our Privacy Policy to learn more. By continuing to use the site, you agree to this use of cookies and data.
  • In Romania
  • List of Countries
  • For 7 days
  • Water Temperature
  • Satellite Maps
  • Weather Map
  • Weather Widgets
  • user-avatar
    Login

    Hourly Weather Laganow

    Today, 26 June, Wednesday

    Time Temperature Precipitation Wind Pressure Humidity
    00:00 +23°C° 0 mm 1 mps 750 mmHg 94%
    01:00 +22°C° 0 mm 1 mps 750 mmHg 94%
    02:00 +22°C° 0 mm 1 mps 750 mmHg 94%
    03:00 +22°C° 0 mm 1 mps 750 mmHg 93%
    04:00 +22°C° 0 mm 1 mps 749 mmHg 93%
    05:00 +23°C° 0 mm 1 mps 749 mmHg 88%
    06:00 +25°C° 0 mm 1 mps 750 mmHg 83%
    07:00 +26°C° 0 mm 1 mps 750 mmHg 78%
    08:00 +28°C° 0 mm 1 mps 749 mmHg 73%
    09:00 +29°C° 0 mm 1 mps 749 mmHg 67%
    10:00 +31°C° 0 mm 1 mps 749 mmHg 62%
    11:00 +32°C° 0 mm 1 mps 749 mmHg 57%
    12:00 +34°C° 0 mm 2 mps 749 mmHg 53%
    13:00 +35°C° 0 mm 2 mps 749 mmHg 48%
    14:00 +35°C° 0 mm 2 mps 748 mmHg 49%
    15:00 +35°C° 0 mm 3 mps 747 mmHg 51%
    16:00 +35°C° 0 mm 3 mps 747 mmHg 52%
    17:00 +33°C° 0 mm 3 mps 746 mmHg 58%
    18:00 +30°C° 0 mm 3 mps 746 mmHg 64%
    19:00 +28°C° 0 mm 3 mps 746 mmHg 70%
    20:00 +27°C° 0 mm 4 mps 746 mmHg 72%
    21:00 +27°C° 0 mm 4 mps 746 mmHg 75%
    22:00 +26°C° 0 mm 4 mps 745 mmHg 77%
    23:00 +26°C° 0 mm 4 mps 745 mmHg 77%

    Tomorrow, 27 June, Thursday

    Time Temperature Precipitation Wind Pressure Humidity
    00:00 +26°C° 0 mm 4 mps 745 mmHg 76%
    01:00 +25°C° 0 mm 5 mps 745 mmHg 76%
    02:00 +25°C° 0.3 mm 5 mps 745 mmHg 80%
    03:00 +23°C° 0.3 mm 5 mps 744 mmHg 85%
    04:00 +23°C° 0.3 mm 5 mps 744 mmHg 89%
    05:00 +23°C° 0.5 mm 5 mps 744 mmHg 89%
    06:00 +23°C° 0.5 mm 5 mps 744 mmHg 89%
    07:00 +23°C° 0.5 mm 5 mps 744 mmHg 89%
    08:00 +23°C° 0 mm 6 mps 744 mmHg 82%
    09:00 +23°C° 0 mm 7 mps 744 mmHg 74%
    10:00 +24°C° 0 mm 8 mps 744 mmHg 67%
    11:00 +24°C° 0 mm 8 mps 744 mmHg 61%
    12:00 +24°C° 0 mm 8 mps 744 mmHg 54%
    13:00 +26°C° 0 mm 7 mps 744 mmHg 48%
    14:00 +24°C° 0 mm 7 mps 744 mmHg 49%
    15:00 +24°C° 0 mm 7 mps 744 mmHg 50%
    16:00 +23°C° 0 mm 7 mps 744 mmHg 51%
    17:00 +22°C° 0 mm 6 mps 744 mmHg 57%
    18:00 +20°C° 0 mm 5 mps 744 mmHg 63%
    19:00 +19°C° 0 mm 4 mps 744 mmHg 69%
    20:00 +18°C° 0 mm 4 mps 744 mmHg 73%
    21:00 +17°C° 0 mm 4 mps 744 mmHg 76%
    22:00 +17°C° 0 mm 3 mps 745 mmHg 79%
    23:00 +16°C° 0 mm 3 mps 745 mmHg 83%

    Day after tomorrow, 28 June, Friday

    Time Temperature Precipitation Wind Pressure Humidity
    00:00 +16°C° 0 mm 3 mps 745 mmHg 88%
    01:00 +14°C° 0 mm 3 mps 745 mmHg 93%
    02:00 +14°C° 0 mm 3 mps 745 mmHg 93%
    03:00 +14°C° 0 mm 3 mps 745 mmHg 92%
    04:00 +14°C° 0 mm 3 mps 745 mmHg 92%
    05:00 +14°C° 0 mm 3 mps 745 mmHg 85%
    06:00 +16°C° 0 mm 3 mps 746 mmHg 77%
    07:00 +17°C° 0 mm 3 mps 746 mmHg 70%
    08:00 +18°C° 0 mm 3 mps 746 mmHg 63%
    09:00 +19°C° 0 mm 4 mps 746 mmHg 57%
    10:00 +20°C° 0 mm 4 mps 746 mmHg 51%
    11:00 +21°C° 0 mm 4 mps 746 mmHg 51%
    12:00 +21°C° 0 mm 4 mps 745 mmHg 51%
    13:00 +21°C° 0 mm 4 mps 745 mmHg 51%
    14:00 +22°C° 0 mm 4 mps 745 mmHg 53%
    15:00 +22°C° 0 mm 4 mps 745 mmHg 56%
    16:00 +22°C° 0 mm 3 mps 745 mmHg 58%
    17:00 +21°C° 0.2 mm 3 mps 745 mmHg 65%
    18:00 +20°C° 0.2 mm 3 mps 745 mmHg 71%
    19:00 +19°C° 0.2 mm 3 mps 745 mmHg 78%
    20:00 +17°C° 0 mm 2 mps 745 mmHg 78%
    21:00 +16°C° 0 mm 2 mps 746 mmHg 79%
    22:00 +14°C° 0 mm 2 mps 746 mmHg 79%
    23:00 +13°C° 0 mm 2 mps 746 mmHg 80%

    29 June, Saturday

    Time Temperature Precipitation Wind Pressure Humidity
    00:00 +13°C° 0 mm 2 mps 747 mmHg 81%
    01:00 +11°C° 0 mm 3 mps 747 mmHg 83%
    02:00 +10°C° 0 mm 3 mps 747 mmHg 83%
    03:00 +10°C° 0 mm 2 mps 747 mmHg 84%
    04:00 +9°C° 0 mm 2 mps 747 mmHg 85%
    05:00 +12°C° 0 mm 2 mps 747 mmHg 79%
    06:00 +13°C° 0 mm 3 mps 747 mmHg 73%
    07:00 +16°C° 0 mm 3 mps 747 mmHg 67%
    08:00 +17°C° 0 mm 3 mps 747 mmHg 62%
    09:00 +19°C° 0 mm 3 mps 748 mmHg 56%
    10:00 +20°C° 0 mm 4 mps 748 mmHg 50%
    11:00 +21°C° 0 mm 4 mps 747 mmHg 50%
    12:00 +22°C° 0 mm 4 mps 747 mmHg 50%
    13:00 +22°C° 0 mm 4 mps 747 mmHg 50%
    14:00 +23°C° 0 mm 4 mps 747 mmHg 52%
    15:00 +24°C° 0 mm 3 mps 746 mmHg 54%
    16:00 +24°C° 0 mm 3 mps 746 mmHg 56%
    17:00 +22°C° 0 mm 3 mps 746 mmHg 61%
    18:00 +21°C° 0 mm 2 mps 746 mmHg 66%
    19:00 +21°C° 0 mm 1 mps 746 mmHg 71%
    20:00 +20°C° 0 mm 1 mps 746 mmHg 72%
    21:00 +18°C° 0 mm 1 mps 746 mmHg 74%
    22:00 +16°C° 0 mm 1 mps 747 mmHg 76%
    23:00 +16°C° 0 mm 1 mps 747 mmHg 76%

    30 June, Sunday

    Time Temperature Precipitation Wind Pressure Humidity
    00:00 +16°C° 0 mm 1 mps 747 mmHg 76%
    01:00 +15°C° 0 mm 1 mps 746 mmHg 76%
    02:00 +15°C° 0 mm 2 mps 746 mmHg 77%
    03:00 +15°C° 0 mm 2 mps 746 mmHg 77%
    04:00 +14°C° 0 mm 2 mps 746 mmHg 78%
    05:00 +16°C° 0 mm 2 mps 746 mmHg 73%
    06:00 +18°C° 0 mm 2 mps 746 mmHg 69%
    07:00 +20°C° 0 mm 2 mps 746 mmHg 64%
    08:00 +23°C° 0 mm 2 mps 746 mmHg 59%
    09:00 +24°C° 0 mm 2 mps 746 mmHg 54%
    10:00 +26°C° 0 mm 2 mps 746 mmHg 49%
    11:00 +27°C° 0 mm 2 mps 746 mmHg 47%
    12:00 +28°C° 0 mm 2 mps 746 mmHg 45%
    13:00 +29°C° 0 mm 2 mps 745 mmHg 44%
    14:00 +29°C° 0 mm 2 mps 745 mmHg 45%
    15:00 +29°C° 0 mm 2 mps 745 mmHg 46%
    16:00 +30°C° 0 mm 2 mps 745 mmHg 48%
    17:00 +28°C° 0 mm 2 mps 744 mmHg 54%
    18:00 +27°C° 0 mm 2 mps 744 mmHg 60%
    19:00 +25°C° 0 mm 2 mps 744 mmHg 66%
    20:00 +24°C° 0 mm 2 mps 744 mmHg 69%
    21:00 +21°C° 0 mm 2 mps 744 mmHg 71%
    22:00 +20°C° 0 mm 2 mps 744 mmHg 73%
    23:00 +19°C° 0 mm 3 mps 744 mmHg 76%

    1 July, Monday

    Time Temperature Precipitation Wind Pressure Humidity
    00:00 +19°C° 0 mm 3 mps 744 mmHg 80%
    01:00 +18°C° 0 mm 3 mps 744 mmHg 83%
    02:00 +18°C° 0 mm 3 mps 743 mmHg 83%
    03:00 +17°C° 0 mm 3 mps 743 mmHg 83%
    04:00 +17°C° 0 mm 3 mps 743 mmHg 83%
    05:00 +19°C° 0 mm 3 mps 743 mmHg 78%
    06:00 +20°C° 0 mm 3 mps 743 mmHg 72%
    07:00 +22°C° 0 mm 3 mps 743 mmHg 67%
    08:00 +25°C° 0 mm 3 mps 743 mmHg 64%
    09:00 +27°C° 0 mm 3 mps 743 mmHg 60%
    10:00 +29°C° 0 mm 4 mps 743 mmHg 56%
    11:00 +29°C° 0 mm 4 mps 743 mmHg 56%
    12:00 +30°C° 0 mm 4 mps 742 mmHg 56%
    13:00 +30°C° 0 mm 4 mps 742 mmHg 56%
    14:00 +32°C° 0 mm 4 mps 742 mmHg 56%
    15:00 +32°C° 0 mm 4 mps 741 mmHg 55%
    16:00 +32°C° 0 mm 5 mps 741 mmHg 55%
    17:00 +29°C° 0.4 mm 5 mps 741 mmHg 61%
    18:00 +28°C° 0.4 mm 5 mps 741 mmHg 68%
    19:00 +26°C° 0.4 mm 5 mps 741 mmHg 74%
    20:00 +25°C° 0.1 mm 4 mps 741 mmHg 77%
    21:00 +23°C° 0.1 mm 4 mps 741 mmHg 80%
    22:00 +22°C° 0.1 mm 3 mps 741 mmHg 83%
    23:00 +21°C° 3 mm 4 mps 741 mmHg 87%
    Show more